Showing default

BADR B, 27003

Orbit data source: Space-Track

BADR B, 27003 is a payload satellite owned by SUPARCO (PK) in SSO that was launched on Mon, 10 Dec 2001 UTC via a ZENIT-2 launch vehicle from the Tyuratam Missile And Space Complex (TTMTR). Payload-class satellites include a variety of spacecraft equipped with specific instruments for various scientific and technological missions. These include communications satellites like Starlink; space stations such as the ISS; scientific satellites like the Hubble; Earth observation satellites from companies like Planet Labs, Umbra, and HawkEye 360; GPS; miniature CubeSats for education and research; and military/defense satellites.

Loading next visibility...
Identifier
27003, 2001-056C
Orbit
SSO
Country
Flag of UnknownUnknown / PAKI
Related business
Manufacturer
SIL
Mission
Non-operational Civil Imaging
Bus & Motor
MICROSIL, Unknown motor
Mass
69 kg wet, 69 kg dry
Launch date (UTC)
2001-12-10 (24 years ago)
Launch vehicle
ZENIT-2
Launch site
Tyuratam Missile And Space Complex (TTMTR)
Object type
Payload
Rocket body
Debris
Shape & HBR
Box + 1 Arm, 3.3 m
Radar Cross Section
0.375 m², Medium (>0.1 m² and < 1m²)

Expand to show TLE details & history
Last TLE update: 18 hours ago

TLE from 18 hours ago
0 BADR B
1 27003U 01056C   25310.08362420 -.00000020  00000-0  29727-4 0  9994
2 27003  99.7857 116.7340 0020103 350.6140   9.4627 13.70392566195382
Epoch: 2025-11-06T02:00Z
TLE epoch observation values (Epoch: 2025-11-06T02:00:25.130Z)
Latitude
-0.00005°
Longitude
41.08227°
Altitude
986.344 km
Speed
7.366 km/s
True Right ascension
07h 46m 56s
True Declination
0° 00' 00"
Sunlit
Object was in daylight at epoch
Visualization orbit readout
Latitude
Unknown
Longitude
Unknown
Altitude
Unknown
Speed
Unknown
Apparent Right ascension
Unknown
Apparent Declination
Unknown
Sunlit
N/A
Visualization observer readout
Local Sidereal Time
16:02:26
Azimuth
Unknown
Elevation
Unknown
Doppler factor
Unknown
Orbital elements
Apogee altitude
1,010.264 km
Perigee altitude
980.618 km
Semi-major axis
7,373.578 km
Eccentricity
0.00201
Inclination
99.7857°
RAAN
116.734°
Arg. of periapsis
350.614°
True anomaly
9.50067°
Mean anomaly
9.4627°
Eccentric anomaly
9.48167°
Mean motion
3.42788 °/min
Orbital period
105.02 mins
BSTAR
0.000029727
Loading maneuver chart data...
Computing Atmospheric mass density...
Loading historical data...
Loading historical data...
Loading historical data...
Loading historical data...
Loading historical data...
Loading historical data...
Loading historical data...

Documentation

Showing up to 5 results
|